{"data":{"norad_id":66755,"intl_designator":"2025-276CT","name":"ICEYE-X62","alt_names":[],"object_type":"PAYLOAD","status":"ACTIVE","operator":null,"country":"POL","launch_date":"2025-11-28","launch_site_code":"AFWTR","launch_vehicle":null,"mission":null,"orbit_class":"UNKNOWN","rcs_meters":null,"size_class":null,"mass_kg":null,"dimensions":null,"purposes":[],"wikipedia_slug":null,"has_3d_model":false,"image_url":null,"decayed_at":null,"tle_current":{"epoch":"2026-09-20T22:27:06.279840Z","epoch_age_seconds":80953,"freshness":"FRESH","line1":"1 66755U 25276CT  26263.93548935  .00001340  00000+0  85200-4 0  9992","line2":"2 66755  97.4116 333.1282 0003602  58.2146 301.9434 15.10446370 44786","mean_motion":15.1044637,"eccentricity":0.0003602,"inclination_deg":97.4116,"raan_deg":333.1282,"arg_perigee_deg":58.2146,"mean_anomaly_deg":301.9434,"bstar":8.52e-5,"rev_number":4478,"period_min":95.336056188476,"perigee_km":532.34765707827,"apogee_km":537.32776405976,"semimajor_km":6912.974710569,"source":"CELESTRAK","updated_at":"2026-09-21T09:00:16.181103Z"}}}